User: anonymous   Login
Location: Unspecified
(0.0000°N, 0.0000°E)
Time: 20:08:35
(UTC+00:00)
Language:

Quakesat - Orbit

View from above orbital plane
View from above orbital plane
View from above satellite
View from above satellite

Ground track
Ground track

The orbit data is extracted from the following two-line orbital elements,

1 27845U 03031F   19340.62354772 +.00000069 +00000-0 +50622-4 0  9990
2 27845 098.6829 347.5865 0007990 280.3009 079.7268 14.22236295852432
Epoch (UTC): 06 December 2019 14:57:54
Eccentricity: 0.0007990
inclination: 98.6829°
perigee height: 812 km
apogee height: 823 km
right ascension of ascending node: 347.5865°
argument of perigee: 280.3009°
revolutions per day: 14.22236295
mean anomaly at epoch: 79.7268°
orbit number at epoch: 85243

The dashed part of the orbit path shows where the satellite is in the earth's shadow,  

DLR